Wind_Speed
14 12 13 13 13 12 12 14 14 15 14 13 13 12 12 12 12 12 11 11 11 10 9 9 8 10 13 15 15 13 12 11 11 11 11 11 10 8 7 9 10 12 13 13 13 13 13 14 14 13 13 13 13 12 12 12 12 12 12 12 13 13 13 13 13 12 14 14 14 15 15 16 16 17 18 18 18 19 19 19 19 19 20 20 20
15 13 13 14 14 14 14 15 15 15 14 14 13 12 12 12 12 12 12 12 12 10 9 9 11 14 15 15 14 13 12 11 10 10 11 10 10 10 9 10 11 12 13 13 13 13 13 13 13 12 12 11 11 11 11 11 11 12 12 12 13 13 12 13 13 12 13 14 14 15 15 16 17 17 18 18 18 19 19 19 19 19 19 19 20
13 12 10 11 14 14 14 15 15 15 14 13 12 10 11 12 11 11 13 13 11 10 10 11 14 16 16 15 14 12 11 10 10 9 9 9 10 10 10 11 12 12 12 13 12 12 12 12 11 11 10 10 10 10 10 10 10 11 12 12 12 13 12 12 13 13 13 14 14 14 15 16 16 17 19 19 19 19 19 19 19 19 19 19 19
11 11 10 11 13 13 14 14 13 13 12 11 11 9 10 11 11 12 13 12 10 10 11 13 16 16 16 15 13 12 11 10 9 8 8 8 9 10 10 10 11 12 13 12 12 11 11 10 10 9 9 8 9 9 10 10 10 11 12 12 12 12 12 12 12 12 13 13 14 14 15 16 15 17 19 19 19 19 19 19 19 20 20 19 20
11 12 11 11 12 12 13 13 11 11 11 11 11 10 10 11 11 12 13 11 11 11 13 16 17 17 16 14 13 11 10 9 8 7 6 6 7 9 10 10 10 11 12 12 11 11 10 9 8 7 7 7 8 9 9 10 10 11 11 11 11 11 11 11 11 11 12 12 13 13 14 15 15 16 18 19 19 19 19 19 20 20 20 20 20
12 12 11 11 10 10 11 12 12 12 11 12 12 10 11 12 13 14 14 13 12 12 15 18 18 17 17 14 12 11 9 8 7 6 5 5 6 8 9 9 9 9 10 11 11 10 9 9 8 7 7 7 7 8 9 9 10 10 11 11 10 10 10 10 10 11 11 11 12 12 13 14 15 16 18 18 19 18 19 19 20 20 21 21 21
13 12 11 10 10 10 10 11 12 11 11 12 11 11 12 13 15 16 16 14 12 13 17 19 18 18 17 14 12 10 9 7 6 6 5 5 7 8 8 8 8 8 8 8 8 8 8 8 8 8 8 7 7 7 8 9 9 10 10 10 9 9 9 8 9 10 10 10 11 12 12 13 14 15 17 18 18 18 19 19 20 21 21 22 22
14 12 11 10 10 9 9 10 11 11 11 12 12 13 14 14 16 17 18 16 13 16 19 19 19 18 16 14 12 10 8 7 6 5 5 6 8 8 8 8 8 9 10 9 8 8 8 9 9 8 8 7 7 6 7 8 9 9 9 9 9 8 8 8 8 9 9 9 10 11 11 12 13 15 16 17 17 17 19 19 19 20 21 21 22
14 13 11 11 10 9 9 10 11 11 12 13 13 14 15 15 16 17 18 17 17 19 20 20 20 19 15 14 12 9 8 7 5 5 6 8 8 9 9 9 10 11 11 10 9 9 9 9 8 7 6 6 6 6 7 8 8 8 8 9 8 8 8 8 7 7 8 8 9 10 11 12 13 14 15 17 17 17 18 18 18 19 20 21 22
15 14 12 11 10 9 9 11 12 11 13 14 14 14 15 16 17 18 18 18 19 21 22 21 21 19 15 13 11 9 8 7 6 6 7 9 10 11 11 11 12 12 11 10 10 9 8 7 7 6 5 6 6 6 6 7 8 8 8 8 8 8 8 8 7 7 7 8 8 9 10 11 12 14 15 16 17 17 18 18 18 19 20 21 21
15 14 13 12 11 10 11 12 13 13 14 15 15 15 16 17 17 18 19 19 20 22 23 23 22 19 16 14 11 9 9 8 7 8 8 9 10 11 11 12 12 12 12 11 10 8 7 6 4 4 4 5 6 6 6 7 7 7 7 8 8 8 8 8 8 8 7 7 8 9 10 11 12 13 14 16 16 17 17 18 18 18 19 21 21
15 14 14 13 12 12 12 13 14 15 16 16 17 17 18 19 18 19 20 20 20 22 23 24 22 18 16 14 12 11 10 9 8 8 8 9 10 10 10 10 10 10 11 10 9 8 6 4 3 3 3 4 5 6 5 5 6 7 7 7 8 8 8 8 8 8 8 8 8 9 10 10 11 12 14 15 15 16 16 17 18 18 19 20 22
15 14 14 13 13 13 13 14 15 16 17 17 18 18 19 19 19 20 21 21 21 21 24 25 21 15 12 11 10 10 10 9 9 8 8 8 9 9 9 9 8 8 8 8 8 7 5 3 2 3 3 3 3 4 4 4 5 6 8 8 8 8 8 8 8 8 8 8 8 9 9 9 11 12 13 14 15 15 16 16 17 18 19 20 22
16 15 15 14 14 14 14 15 17 17 17 18 19 19 20 20 20 21 20 21 22 23 26 22 14 11 11 9 6 7 8 8 9 9 9 8 8 9 8 8 8 6 6 7 7 6 4 2 2 3 3 3 2 2 3 4 4 6 10 10 9 8 7 7 8 8 9 8 9 9 8 9 10 11 13 13 14 15 15 16 17 18 19 20 22
17 15 15 15 15 15 15 16 18 19 18 19 20 20 21 20 21 22 20 20 20 24 28 20 12 11 10 6 5 4 5 7 10 10 11 10 9 9 9 9 8 7 6 6 6 5 3 2 3 4 3 2 1 1 2 2 4 8 11 11 10 9 8 7 8 9 9 9 9 9 9 9 10 11 12 13 13 14 15 16 17 18 19 21 22
16 14 15 16 15 16 17 17 19 20 20 20 21 22 22 21 22 22 22 20 17 22 28 21 16 15 8 2 4 3 4 6 9 10 11 11 11 10 10 10 9 7 7 7 6 6 4 4 5 4 3 1 1 1 1 2 5 9 11 11 12 11 9 7 8 9 9 9 9 9 9 9 10 11 12 12 14 14 15 16 17 19 20 21 23
15 14 15 16 16 17 17 18 20 21 20 19 20 21 21 21 22 22 23 21 18 22 26 21 19 17 9 4 3 2 2 5 7 8 10 11 10 11 11 11 10 8 8 8 7 7 6 6 6 5 3 2 1 0 1 3 6 7 9 11 12 11 10 9 8 8 9 9 8 9 10 10 10 11 12 13 14 15 16 16 18 19 21 22 23
15 15 15 16 17 17 17 18 21 22 21 19 19 21 22 22 23 22 23 22 21 23 23 21 20 20 14 8 5 3 2 7 5 4 8 9 9 11 11 11 11 9 8 8 8 7 6 7 7 5 3 2 1 1 2 4 7 8 8 10 12 11 10 10 8 8 8 8 9 9 10 10 10 11 12 14 14 15 16 17 18 20 21 23 24
16 15 15 17 18 18 18 19 21 23 21 19 19 21 22 22 22 22 23 22 23 24 24 22 20 20 19 12 7 5 4 7 5 2 5 7 8 10 11 11 12 10 8 9 9 8 7 8 6 5 4 3 2 1 3 5 8 10 10 11 11 10 10 9 9 9 8 8 9 9 10 10 11 11 12 14 14 16 17 18 19 20 22 24 25
17 17 16 18 19 18 18 19 21 23 22 20 20 21 23 23 22 23 24 23 24 24 25 26 21 19 21 15 8 6 7 8 6 5 3 4 7 8 10 12 12 12 11 9 9 9 9 8 7 6 5 3 2 1 3 5 8 10 11 11 9 9 9 9 9 10 10 9 9 9 10 10 11 11 13 14 15 16 18 19 20 21 23 24 25
18 18 18 19 19 19 19 19 22 23 23 21 20 21 22 23 23 24 25 24 24 23 24 27 23 19 21 18 10 6 7 7 7 6 4 3 5 7 10 11 10 12 13 11 10 10 10 9 7 6 5 4 3 2 3 5 8 9 10 10 8 8 8 8 8 9 10 10 9 9 10 10 11 12 13 15 16 17 18 20 20 21 22 24 24
20 20 20 20 20 20 20 21 22 24 24 22 21 21 21 21 22 22 23 23 24 25 24 25 24 22 21 19 13 9 7 6 6 7 5 4 4 6 11 13 10 10 11 10 9 10 10 10 8 7 6 4 3 2 3 6 8 9 9 9 7 7 7 7 8 9 10 10 10 9 9 10 12 13 15 16 17 18 19 20 20 21 22 23 24
22 22 21 21 20 21 22 22 23 24 24 22 21 20 19 20 21 21 22 22 23 24 24 23 23 24 23 20 16 13 11 8 8 10 8 6 5 6 10 12 10 8 9 10 9 10 10 9 9 8 6 5 3 2 3 6 8 9 9 8 7 6 6 7 7 8 8 9 10 10 10 11 12 14 15 16 17 17 19 19 20 20 20 22 23
21 23 23 22 21 21 22 23 24 25 24 23 21 19 18 19 20 21 21 21 21 22 24 24 23 23 23 23 20 17 14 12 10 10 11 9 7 6 7 9 8 6 8 10 9 9 9 8 8 8 6 4 2 2 4 5 7 8 8 7 7 6 6 6 6 7 8 8 10 11 11 11 12 14 15 16 17 17 18 18 18 19 20 22 24
23 25 25 24 22 22 23 23 25 26 25 24 21 18 19 18 17 18 18 19 20 20 21 23 23 22 22 23 22 20 17 16 13 11 11 10 9 6 5 7 7 6 9 9 9 9 8 7 8 7 6 4 2 2 4 5 6 8 7 7 7 6 6 6 6 7 8 9 10 11 12 12 13 14 15 16 17 17 17 17 18 20 21 23 24
27 28 26 24 23 22 23 23 24 25 25 23 20 18 19 17 15 14 16 17 18 18 19 21 22 22 21 21 22 22 20 19 17 14 13 11 10 7 6 5 5 7 9 9 10 9 7 7 8 7 6 4 2 2 4 4 6 7 7 6 6 6 6 5 5 7 8 9 10 11 10 11 12 13 15 17 17 17 17 17 18 19 21 22 24
28 28 26 25 24 23 23 23 23 24 24 22 20 19 18 16 15 13 13 15 15 16 17 19 20 20 20 20 20 21 21 19 18 16 14 12 11 10 10 7 4 6 7 8 10 10 8 8 7 6 6 4 2 2 3 4 6 7 6 5 5 6 6 5 6 6 7 9 10 10 9 10 11 13 15 16 16 16 17 17 18 19 21 22 23
28 26 26 25 25 24 24 24 25 25 23 19 17 16 15 15 15 14 13 13 13 14 15 16 18 19 20 20 20 20 20 18 17 17 16 14 12 12 13 11 7 6 6 6 8 9 9 9 7 7 6 4 3 3 4 3 5 6 5 4 4 5 5 5 6 7 8 9 9 8 8 9 11 13 15 15 15 16 16 17 18 19 20 22 24
27 26 27 25 25 25 25 26 25 24 22 19 16 14 14 15 14 13 13 12 12 13 14 15 16 17 18 18 19 19 18 16 16 16 16 15 14 14 14 13 11 7 5 6 7 9 11 10 7 7 7 5 3 2 2 2 4 5 4 4 4 4 6 6 6 8 8 9 9 8 8 9 11 13 14 15 15 15 16 16 18 19 20 22 24
27 26 27 26 26 26 25 25 24 22 20 18 16 14 14 15 14 12 12 12 12 14 14 15 15 15 16 17 17 16 15 14 14 14 14 14 14 14 15 14 14 11 8 6 6 8 11 10 7 7 8 6 4 2 1 2 4 4 3 3 3 4 6 6 6 7 7 8 8 7 8 9 10 12 13 14 15 15 16 16 18 20 20 22 25
27 27 27 27 27 26 26 25 23 21 19 18 16 15 15 16 14 13 13 13 13 14 14 14 14 14 15 15 14 13 12 13 13 12 12 12 12 13 14 15 16 15 11 8 6 6 9 9 8 8 8 6 4 2 2 2 3 3 2 2 3 4 4 5 5 6 6 7 8 8 8 8 10 12 13 13 14 15 15 16 18 19 20 22 25
28 28 28 28 28 27 26 25 23 22 20 18 17 15 16 16 15 14 14 14 14 14 14 14 14 14 14 13 13 12 12 12 12 10 10 10 10 11 12 12 14 15 12 9 7 5 8 9 8 9 8 6 4 4 3 2 2 2 2 2 3 3 3 3 4 5 6 6 7 8 7 7 10 12 12 13 14 14 15 16 17 18 20 22 24
29 29 29 29 28 28 26 25 23 22 20 19 17 16 17 16 15 15 14 14 14 14 14 14 14 14 14 13 13 13 12 11 10 8 8 7 7 8 9 9 11 14 11 9 6 5 9 9 9 9 9 7 6 6 6 4 3 2 2 2 3 2 1 2 3 5 5 5 7 8 7 7 10 11 12 13 13 13 15 16 17 18 19 21 24
29 29 29 29 29 28 27 25 24 22 20 19 17 17 17 16 15 15 15 15 14 15 15 15 16 15 14 14 13 13 12 10 9 7 6 6 4 4 6 7 8 12 12 10 7 7 9 10 10 10 10 9 8 8 8 6 4 3 2 2 2 2 1 2 2 4 6 6 7 8 7 7 10 11 12 12 12 13 14 15 16 18 19 21 23
30 29 29 30 30 29 27 26 24 22 20 19 18 17 16 15 15 15 15 15 14 15 16 16 16 16 15 14 14 13 12 10 9 8 7 6 5 4 5 6 6 10 13 12 9 9 10 11 12 11 11 12 10 9 8 6 4 3 2 2 1 2 2 2 3 4 6 7 8 7 6 8 10 11 12 11 11 12 13 14 16 17 18 20 23
31 30 30 30 30 29 28 26 24 22 21 19 18 16 15 14 14 15 14 14 14 15 16 16 16 16 15 15 14 13 12 11 10 10 8 7 6 5 5 6 7 9 12 13 12 12 12 11 12 12 11 12 11 9 6 4 3 2 2 2 2 3 3 3 3 4 6 8 8 6 6 8 10 11 10 10 10 11 12 14 16 17 18 20 23
31 30 30 31 31 30 28 26 24 22 21 20 18 16 14 13 14 14 13 13 13 14 15 15 15 16 15 15 15 14 13 13 12 11 10 8 7 6 6 6 7 9 10 13 14 14 13 11 12 12 12 13 11 9 5 3 3 3 4 3 3 5 5 3 3 4 6 8 7 6 8 9 10 10 9 8 9 10 12 14 16 16 18 20 22
31 32 32 32 31 30 28 26 24 22 21 19 17 15 14 14 14 14 13 13 14 14 15 15 15 15 15 14 14 14 14 14 14 13 11 10 9 8 8 8 8 9 10 12 14 14 12 11 11 12 14 14 10 7 4 3 3 3 5 5 4 5 6 4 4 5 7 9 8 7 10 11 10 8 7 7 9 11 12 14 15 16 19 21 22
32 33 33 32 32 30 29 27 24 21 20 18 16 15 15 15 15 15 14 14 14 15 15 15 14 14 14 14 13 14 15 14 14 13 13 12 11 10 9 9 9 10 11 12 12 10 10 11 10 9 11 12 10 7 4 3 3 3 4 5 5 6 7 6 5 5 7 10 9 7 10 12 10 8 7 8 10 12 13 14 16 17 19 21 22
34 34 33 33 32 31 29 27 24 21 20 18 17 17 16 16 16 16 15 14 15 15 14 14 14 13 13 13 13 14 15 14 14 14 13 13 13 12 10 10 10 10 10 10 9 8 9 9 8 8 8 9 8 7 4 3 3 2 3 5 6 7 8 7 5 5 7 10 10 9 9 12 12 10 10 10 12 14 15 15 17 19 20 21 22
34 34 33 33 33 32 29 27 24 22 21 20 19 18 17 17 17 16 15 15 14 14 14 14 13 13 13 13 13 14 14 13 13 13 13 13 12 12 12 11 10 9 8 8 8 7 8 8 8 7 8 8 7 7 5 4 3 3 3 5 6 7 8 8 6 5 7 10 11 10 9 11 14 13 11 11 13 16 16 15 17 20 20 21 22
35 35 34 33 33 31 29 27 25 23 22 21 18 17 17 17 17 17 16 15 14 14 15 15 15 15 14 13 13 13 13 13 13 13 13 13 12 11 11 10 10 9 9 9 8 8 8 8 8 8 8 8 8 8 6 4 4 4 3 4 6 7 8 8 6 6 8 11 12 12 10 11 14 14 12 12 14 15 14 14 17 20 21 21 22
35 34 34 33 32 30 28 27 25 24 23 21 18 17 17 17 17 17 16 15 15 15 16 16 16 16 15 14 14 14 14 14 14 13 14 14 13 12 11 10 10 11 11 11 10 10 10 8 8 9 9 9 9 8 6 5 5 5 4 4 5 6 7 8 7 7 10 13 13 13 11 11 12 13 13 13 14 14 14 15 18 21 21 22 22
35 34 34 33 31 30 28 26 25 24 23 20 18 18 18 17 17 16 16 16 16 17 17 17 17 17 17 17 16 16 17 16 15 15 15 15 15 13 11 10 11 12 13 13 12 13 13 11 10 11 10 8 8 8 7 6 5 5 4 4 5 5 6 7 8 8 11 14 12 12 12 10 10 12 13 13 14 14 15 16 19 21 22 23 23
35 34 34 33 31 30 28 27 26 24 22 20 18 18 18 18 17 16 17 17 17 18 18 18 18 18 18 19 18 19 18 17 17 17 17 16 15 13 12 12 12 12 13 13 13 14 14 13 11 10 10 9 8 7 7 6 5 5 5 5 5 5 6 7 9 10 12 13 11 11 12 9 8 12 13 13 15 15 14 16 20 22 24 24 24
36 35 35 34 32 31 29 27 26 24 22 20 19 19 19 18 18 18 17 17 17 17 17 17 18 19 20 20 20 20 20 19 20 19 18 17 15 13 13 13 13 12 12 13 12 13 13 12 10 8 9 11 9 6 7 7 6 6 6 6 5 6 7 9 11 12 12 11 11 10 10 10 10 12 13 14 15 15 14 16 20 23 25 26 26
37 37 37 36 33 31 29 27 27 25 22 20 19 19 20 19 18 18 18 17 17 17 17 17 18 19 21 20 20 19 20 21 21 20 19 17 14 12 13 13 13 14 14 14 14 13 13 12 11 9 9 10 9 7 8 9 9 9 9 9 8 9 9 10 10 10 8 9 10 9 10 12 11 11 13 15 16 15 14 16 19 23 25 27 27
37 37 37 36 34 31 28 27 26 25 22 20 20 20 20 20 20 20 19 18 17 18 18 18 19 19 20 20 18 18 19 20 20 19 18 17 14 12 12 13 14 15 15 15 15 14 13 13 12 11 10 10 11 10 11 10 10 11 11 11 10 9 9 9 8 7 6 8 9 9 10 12 12 11 13 16 16 15 14 16 19 22 26 28 29
36 35 35 35 33 30 28 27 26 25 23 21 21 21 20 21 21 21 20 18 18 19 18 18 18 19 19 19 18 18 19 20 19 18 17 16 14 13 14 15 16 16 16 15 14 13 12 12 12 12 12 11 11 11 12 12 12 12 12 11 9 7 7 8 7 7 8 8 8 8 9 11 12 12 14 16 16 13 13 18 21 22 24 27 29
34 33 34 35 34 30 28 26 25 25 24 23 22 22 22 22 23 22 21 19 19 20 18 18 19 18 18 19 19 18 19 19 19 18 16 14 14 14 16 17 17 17 16 15 14 13 12 12 12 12 12 12 11 12 13 13 14 13 13 11 8 6 8 9 8 9 9 7 6 7 8 10 12 13 13 16 15 11 12 17 21 21 21 24 28
33 33 34 35 36 33 30 27 25 25 24 24 23 23 23 23 23 23 22 20 19 20 18 18 20 20 19 19 19 20 20 19 19 18 15 13 13 15 16 17 17 18 17 15 14 13 13 12 13 13 12 12 12 13 13 14 15 15 15 14 10 8 9 9 9 9 9 6 6 9 9 10 12 13 12 14 13 12 14 18 21 21 20 23 26
Wind_Direction
167 168 169 168 169 167 162 161 162 167 171 173 173 170 171 174 175 178 175 172 171 163 153 151 145 144 144 142 139 133 125 118 114 114 111 105 104 110 130 132 121 114 111 108 106 103 99 95 96 96 95 93 87 83 78 74 71 68 65 61 61 61 57 52 49 46 41 40 39 36 34 31 27 24 21 18 15 12 10 8 6 4 2 0 0
163 163 165 165 167 167 164 162 162 164 166 167 165 163 165 169 174 178 175 173 173 163 154 151 148 150 147 144 141 134 126 120 116 113 109 106 105 109 120 124 119 115 113 111 107 104 102 100 101 100 96 90 83 78 72 69 66 63 62 60 57 57 55 50 47 44 41 40 38 35 33 29 27 24 21 17 13 11 9 7 6 4 1 1 0
161 160 162 163 161 160 160 161 163 162 162 162 160 162 163 165 166 167 169 169 166 157 154 152 150 151 150 148 144 135 128 122 117 113 109 109 109 110 115 120 120 115 112 111 108 105 105 104 103 99 94 86 79 75 71 67 65 60 59 58 54 53 53 49 47 45 43 41 37 35 32 30 29 26 21 17 13 12 9 8 7 4 1 0 358
167 166 166 166 160 156 157 160 162 161 163 162 163 165 163 164 158 159 166 161 152 152 154 153 151 151 153 151 145 137 130 123 118 112 107 110 116 119 117 117 119 117 112 109 109 109 108 104 101 97 90 83 78 74 70 68 65 59 55 56 52 51 52 49 47 46 44 41 38 36 33 32 29 24 20 18 16 14 12 10 7 3 1 359 356
172 171 171 173 170 164 163 164 166 167 168 168 169 168 164 166 159 160 164 151 145 152 154 156 156 155 156 152 145 139 132 126 119 112 107 110 123 130 126 120 119 118 115 114 114 113 112 108 103 97 90 85 81 73 67 64 62 56 52 54 50 49 51 48 47 46 43 41 39 37 35 30 25 21 19 18 17 15 13 9 6 4 1 359 357
177 175 175 179 179 177 172 172 174 175 174 174 175 171 169 171 164 164 163 150 147 152 156 159 159 159 158 155 151 144 136 130 120 113 113 117 131 137 133 129 125 121 121 125 125 122 116 109 101 92 87 88 83 70 63 59 57 53 50 50 47 48 48 47 47 43 42 43 38 36 33 28 24 23 20 18 18 15 13 8 6 5 3 1 359
182 179 180 183 185 185 181 180 181 180 179 179 180 175 173 175 170 167 163 152 148 155 160 161 160 162 160 159 158 150 139 133 123 117 116 124 137 139 136 133 132 130 129 129 130 132 125 110 100 91 85 85 81 67 58 54 52 50 47 47 43 44 45 44 46 42 41 40 37 35 31 27 24 22 19 17 18 16 12 9 8 7 4 3 1
187 187 186 188 191 191 188 189 188 185 183 180 182 182 178 177 176 174 168 157 154 160 164 164 162 162 163 163 160 152 142 134 125 123 122 130 138 139 137 134 136 137 131 124 118 122 121 113 103 93 86 80 72 65 58 52 50 48 45 43 37 37 38 37 39 39 39 36 33 32 28 25 22 18 16 14 16 15 12 10 9 8 6 4 3
191 194 193 195 200 200 194 197 194 187 184 181 183 185 181 179 176 177 176 166 161 164 165 166 164 162 165 168 162 152 146 139 131 124 127 134 137 135 135 134 135 133 127 121 117 116 116 115 109 98 92 86 74 68 64 55 49 46 41 36 31 31 32 30 27 28 32 30 26 24 23 22 17 14 13 12 14 14 11 10 10 9 7 6 4
195 200 201 203 207 207 204 203 197 189 185 183 184 183 182 184 177 176 179 174 169 169 168 168 164 160 166 170 163 156 152 144 136 128 132 137 136 132 132 132 131 129 125 123 122 122 121 117 111 98 83 78 77 77 71 58 49 44 37 30 26 26 25 23 19 15 17 19 19 15 13 13 12 11 11 10 12 13 11 11 11 10 10 8 6
198 206 208 209 211 213 212 206 197 192 188 185 184 181 182 186 182 177 178 177 177 175 171 166 162 161 168 170 163 160 155 148 141 136 140 143 138 134 132 131 130 129 126 126 127 126 126 121 109 90 65 56 66 81 83 67 53 42 33 26 23 22 21 17 13 9 6 6 9 8 3 4 8 9 9 9 11 13 13 12 13 12 12 10 7
202 210 211 213 216 218 214 204 199 196 192 188 186 184 183 185 183 179 178 177 177 176 172 165 157 154 161 164 161 161 158 154 151 146 149 150 147 143 141 139 137 135 133 134 136 134 131 123 107 89 70 55 60 72 78 71 59 45 29 22 21 20 16 11 9 6 3 1 0 2 0 2 7 9 8 9 12 14 12 12 13 13 11 9 6
205 210 212 214 218 219 211 202 200 198 196 195 193 188 185 184 182 179 178 175 171 172 172 164 152 145 146 151 157 163 165 165 165 163 163 163 162 160 156 155 152 152 152 149 149 145 133 116 97 88 85 87 75 63 54 40 38 30 17 15 20 19 11 7 8 4 1 360 357 358 1 3 4 6 7 8 11 11 9 9 10 10 8 7 5
207 209 213 216 218 218 210 202 201 200 198 197 194 189 185 185 182 176 175 174 172 174 173 165 155 149 147 146 151 165 175 181 184 183 182 180 179 178 174 172 170 171 171 165 165 157 140 116 99 106 111 111 96 59 47 33 16 1 2 8 15 17 11 5 5 3 359 358 357 358 1 1 2 4 5 6 7 6 5 5 4 5 4 3 1
208 210 214 218 219 218 212 206 203 201 199 195 191 188 186 186 186 179 173 171 172 176 176 173 164 149 143 152 163 171 188 198 202 201 199 198 196 192 189 187 186 185 181 181 181 173 163 139 124 134 139 128 109 73 60 36 355 348 356 4 8 9 10 5 359 359 358 356 356 358 0 359 0 2 1 2 1 360 359 359 358 358 358 357 356
207 208 215 219 218 217 214 208 203 203 202 196 190 189 189 188 188 186 180 169 166 176 180 183 178 162 146 137 155 185 219 195 194 203 206 209 209 206 202 197 195 192 188 191 189 181 174 153 149 160 168 162 139 83 57 12 346 349 357 2 2 1 1 360 355 357 357 356 357 357 357 357 358 358 358 356 355 354 352 352 352 352 353 353 352
207 207 214 217 215 215 215 208 203 203 203 200 194 194 194 192 191 191 188 182 175 178 184 192 191 182 172 142 146 221 233 160 170 191 201 211 215 210 209 203 198 196 193 193 188 183 178 166 167 179 189 191 185 28 23 0 354 1 0 356 357 355 352 353 355 0 1 359 359 357 356 355 355 355 354 352 350 350 349 347 347 348 349 349 349
207 208 212 215 213 214 213 206 202 202 204 205 201 199 199 198 198 198 197 197 190 182 187 195 196 195 194 190 207 246 134 147 163 176 187 204 214 208 209 207 202 200 197 195 189 183 179 173 174 185 197 207 219 318 351 353 355 2 357 350 353 351 348 350 354 3 8 4 0 358 357 355 353 352 352 351 350 349 348 346 345 345 347 346 346
208 208 211 213 212 212 211 206 202 202 205 208 204 203 204 204 205 204 203 204 199 189 189 194 195 202 207 208 217 219 163 163 176 164 176 196 206 207 208 206 206 207 204 198 194 189 184 179 178 187 200 215 236 302 346 348 349 353 352 352 351 346 346 349 350 356 4 7 3 359 357 355 353 352 352 353 353 352 349 346 344 344 345 345 345
209 209 212 212 210 210 211 207 203 203 206 207 204 205 207 208 207 208 208 208 206 201 198 197 197 202 208 209 212 206 189 187 193 197 205 190 187 196 204 205 211 216 215 210 205 199 188 183 183 187 198 213 234 295 338 343 347 350 352 354 350 342 343 347 347 350 355 1 4 0 357 356 354 352 351 351 351 351 349 345 342 342 343 345 345
209 210 212 211 209 209 210 208 204 205 205 203 202 203 206 209 209 209 210 211 212 212 209 207 206 205 208 207 202 190 188 198 202 200 223 219 189 185 188 194 207 219 222 221 212 199 186 185 189 188 196 210 230 285 324 339 346 351 351 353 349 338 339 344 345 346 348 353 359 0 357 355 354 351 348 348 347 346 345 343 340 340 342 344 345
208 209 211 212 208 208 211 210 206 205 204 202 201 202 205 210 213 212 214 216 217 217 218 219 218 216 215 209 199 188 185 196 197 196 214 233 220 196 185 188 195 204 213 214 201 189 183 189 191 187 192 200 213 279 323 342 346 350 351 351 348 337 336 342 342 343 344 346 353 358 355 353 350 348 347 345 344 343 342 341 340 341 342 344 345
207 208 211 212 208 208 211 212 209 206 205 205 204 205 208 212 214 216 219 222 224 224 225 228 226 222 220 215 208 204 205 210 203 200 209 216 219 207 191 193 196 187 191 196 188 181 181 185 187 185 190 195 203 273 327 343 345 350 351 350 349 340 335 339 337 336 337 340 347 349 348 348 346 344 344 344 344 344 342 342 343 344 345 345 345
205 208 211 211 208 209 210 210 211 210 210 210 209 209 212 213 214 218 222 225 230 230 228 229 228 225 223 222 221 220 221 226 219 211 218 221 224 219 186 186 194 173 169 178 175 174 177 178 180 186 191 191 203 283 332 344 344 349 353 349 346 343 335 333 329 326 328 333 338 340 340 339 338 338 338 340 343 344 344 345 345 347 348 347 345
204 208 211 210 208 210 210 208 210 214 215 214 211 213 217 217 216 221 225 229 233 234 233 233 231 229 227 226 228 229 229 232 231 226 226 225 228 224 170 172 191 166 160 172 168 167 175 178 179 183 187 187 203 294 332 343 340 347 353 347 342 342 335 325 319 317 321 327 332 336 337 335 334 334 334 337 341 343 346 346 345 348 350 349 348
206 209 211 210 208 212 211 208 210 215 218 215 210 211 218 221 221 225 230 232 235 236 237 237 234 231 230 230 232 234 235 236 235 232 227 222 223 209 159 155 185 170 170 180 177 178 180 179 181 180 181 187 210 296 328 337 335 343 352 347 337 335 332 320 312 313 317 323 329 333 335 333 334 335 335 338 340 343 345 345 345 348 349 348 348
211 211 211 210 209 210 211 210 211 216 220 216 210 209 213 220 224 228 234 235 236 238 238 237 236 235 235 236 237 237 238 238 236 232 229 226 224 205 177 167 172 176 185 188 189 198 187 168 175 181 181 190 216 281 324 329 328 340 350 344 334 327 324 314 307 311 314 318 323 326 328 332 335 336 336 338 340 342 345 345 345 347 346 345 346
213 212 211 210 208 208 207 208 212 216 218 219 216 212 215 221 224 225 229 231 234 239 240 238 237 237 239 240 239 238 238 238 236 235 233 231 228 215 200 195 194 186 190 194 199 203 187 171 174 179 182 192 214 278 324 323 319 335 343 334 330 320 313 308 304 306 310 313 316 319 324 331 335 336 335 335 337 340 341 342 343 343 342 342 345
214 213 211 210 207 205 203 205 210 212 213 218 219 218 224 226 223 224 228 228 228 235 239 238 236 236 236 237 235 236 238 235 234 233 231 231 229 222 214 212 215 209 196 200 205 199 189 186 185 180 184 194 211 270 307 299 310 329 335 326 328 317 308 307 306 305 309 311 310 313 322 330 334 335 333 332 334 336 336 337 338 338 339 341 345
214 213 211 209 207 205 202 204 208 210 210 213 216 219 228 226 221 227 232 226 222 228 234 234 234 232 230 230 229 230 232 228 227 225 224 226 227 224 221 219 223 227 219 211 206 191 186 188 191 185 182 189 207 249 264 281 312 327 333 327 326 318 311 308 306 307 309 307 306 311 322 328 332 330 329 330 332 332 332 332 334 336 338 342 346
213 212 209 208 207 205 204 205 208 212 213 215 215 219 226 225 223 228 229 223 221 225 229 228 227 225 221 219 216 216 218 216 216 219 221 225 226 226 228 224 225 228 225 226 224 185 177 185 186 182 179 182 199 219 228 263 302 325 331 327 321 318 317 311 308 310 307 302 303 310 319 326 329 327 327 328 329 329 329 330 333 337 340 344 347
211 211 209 208 207 205 205 206 208 212 216 218 218 219 223 226 229 230 226 220 218 222 224 222 219 214 210 208 207 208 209 209 214 219 223 228 225 224 229 227 225 225 221 230 238 171 162 179 172 171 180 183 192 204 209 241 283 315 316 310 316 321 320 306 307 313 311 304 302 307 317 326 328 327 327 327 327 327 328 331 336 340 343 345 347
210 210 209 208 208 206 206 208 210 214 218 220 219 217 219 225 231 231 224 218 216 218 217 214 209 205 202 202 204 204 205 207 212 216 217 220 218 218 224 222 223 224 216 219 226 162 156 176 170 170 186 188 196 212 208 211 232 260 289 300 313 316 290 276 309 319 320 319 309 305 313 326 329 330 328 327 327 327 330 336 340 342 343 345 346
210 209 209 208 208 207 207 209 212 216 220 222 221 218 218 225 228 225 220 216 214 214 211 208 205 202 200 202 202 201 202 203 203 201 196 192 178 184 206 206 214 223 215 208 206 170 161 176 177 180 193 196 204 217 214 209 216 230 250 273 306 322 289 273 299 311 323 335 324 310 315 330 333 332 329 329 330 332 338 343 343 343 343 343 344
209 209 209 209 208 207 208 211 213 217 222 223 221 220 222 227 226 221 218 216 214 213 210 207 205 202 199 200 201 200 197 193 191 188 180 171 154 148 176 186 195 213 210 201 193 175 166 173 182 187 197 202 206 212 214 219 228 244 260 257 300 348 332 303 295 296 318 337 333 320 326 339 340 336 332 333 337 342 347 346 342 342 342 341 343
207 208 209 209 207 206 207 210 214 219 223 223 221 221 225 228 225 221 218 216 215 215 214 211 208 205 201 200 201 199 194 189 185 183 176 164 150 144 158 171 183 200 202 197 195 187 174 173 186 193 198 203 204 203 210 232 254 296 327 307 331 7 354 321 301 295 316 335 338 334 343 349 346 339 336 341 349 352 349 342 340 340 340 341 344
206 206 207 207 206 206 207 210 214 219 223 222 220 220 224 224 221 221 220 218 216 216 217 216 212 209 206 204 203 199 193 189 184 179 176 170 161 160 166 172 180 189 192 194 198 196 184 179 186 194 199 200 200 200 208 248 283 324 342 326 337 9 13 347 307 303 328 345 350 350 355 357 352 344 344 353 358 350 341 340 340 340 342 345 348
205 205 205 205 205 205 207 210 213 218 222 222 220 220 221 217 213 214 216 216 214 214 214 214 213 212 210 209 208 203 197 193 189 183 182 182 179 178 181 181 180 182 188 194 196 194 190 185 183 191 198 199 198 201 213 263 295 321 336 326 330 359 14 7 330 317 340 357 0 356 0 3 358 352 353 354 349 342 339 341 343 343 347 350 351
204 204 204 204 205 205 207 209 211 216 220 219 216 218 218 212 206 207 209 210 210 210 209 209 211 212 213 214 213 207 201 199 196 192 191 193 192 191 192 191 187 187 192 195 193 188 186 185 184 187 192 196 201 207 224 275 286 308 334 332 335 349 356 358 346 325 340 360 3 352 356 3 1 354 349 344 342 342 342 342 345 349 352 353 353
205 204 203 204 204 203 205 207 210 214 216 213 212 214 214 210 205 205 206 207 207 207 207 208 210 212 214 216 215 210 207 205 203 202 204 203 199 198 202 204 202 197 194 193 189 185 183 183 185 185 186 193 203 212 233 267 272 291 329 333 335 339 340 342 342 331 340 355 355 341 344 358 1 353 343 340 341 344 345 346 350 355 355 354 355
205 205 203 203 202 201 203 206 209 211 211 209 210 212 211 207 205 206 207 207 208 207 206 207 208 210 212 213 211 209 208 208 208 212 216 215 210 209 212 214 211 205 198 195 190 185 184 186 187 185 188 197 204 211 230 249 258 277 310 325 327 328 331 334 335 338 344 347 346 340 337 348 355 352 341 337 341 345 348 350 352 355 356 355 356
205 204 202 202 201 201 202 205 207 208 207 208 210 211 211 208 206 206 207 207 209 209 207 206 206 207 209 209 207 206 207 209 211 212 218 222 223 228 233 230 225 217 204 199 198 194 191 193 192 189 194 205 206 210 226 239 243 261 287 308 318 323 329 333 333 337 344 344 342 343 338 340 349 350 344 344 347 349 352 352 354 357 357 355 356
204 203 202 201 200 201 203 205 206 206 206 208 208 208 209 209 207 206 206 207 207 207 207 207 205 205 204 203 202 202 206 210 209 210 217 223 226 236 244 245 243 233 216 207 204 200 197 197 196 195 203 213 209 207 224 236 235 249 268 278 302 320 325 329 328 327 338 341 338 335 332 333 339 340 343 348 349 350 353 355 357 359 358 356 355
201 200 201 200 199 201 203 205 206 205 206 207 206 206 206 206 206 205 206 207 206 204 205 205 205 205 202 199 200 204 207 210 210 212 219 223 227 236 242 243 246 243 232 225 217 208 204 201 201 205 214 219 209 207 223 232 232 245 259 262 281 304 311 317 316 314 326 334 332 328 325 327 338 340 342 347 347 349 355 359 360 359 358 357 355
198 197 198 198 198 200 202 204 205 205 207 206 205 205 205 204 203 203 206 207 206 204 204 204 205 206 203 201 202 206 209 212 214 216 219 220 225 236 242 241 243 242 236 231 226 218 212 209 210 215 223 222 210 210 226 233 235 245 261 273 280 292 303 308 308 309 318 325 327 323 317 320 341 344 343 346 345 345 350 356 359 359 358 357 355
194 195 196 195 196 199 201 203 203 204 206 205 204 204 204 204 202 202 205 206 205 206 207 206 207 208 206 205 206 209 211 213 215 217 216 216 224 236 238 240 241 233 225 221 218 215 214 215 218 226 231 226 216 215 231 236 238 241 256 277 283 290 297 298 302 307 314 323 327 321 313 322 342 342 340 345 343 340 343 350 357 359 357 355 355
192 194 195 194 195 197 200 202 202 203 205 203 202 203 203 202 200 201 205 205 204 207 209 209 210 209 209 209 211 215 215 214 218 220 216 217 228 235 234 236 233 220 210 209 209 210 213 218 224 232 236 227 219 223 236 241 244 242 246 259 272 282 288 289 297 304 310 318 324 319 311 322 335 333 333 340 339 336 340 345 352 357 355 355 355
192 193 193 193 194 195 198 201 201 202 204 201 201 202 201 200 198 199 203 204 205 208 209 209 210 210 211 211 214 221 221 219 223 225 221 224 233 233 227 226 220 211 207 208 211 215 220 226 233 238 237 229 227 235 241 244 252 252 250 260 270 276 280 286 294 304 314 316 317 313 306 315 329 326 322 332 337 336 340 344 349 355 356 356 356
190 190 190 193 194 193 195 197 198 201 202 201 200 200 199 197 195 198 201 201 203 207 208 209 210 210 212 213 217 226 226 225 229 230 228 234 238 230 223 219 214 211 213 215 219 225 230 236 243 245 241 235 236 243 246 247 255 258 255 261 269 270 277 288 297 310 320 313 309 310 302 307 325 324 315 323 330 331 339 344 346 351 354 354 355
188 189 190 191 193 193 191 191 194 200 202 200 198 198 198 196 196 197 198 197 199 204 206 208 209 211 214 217 222 228 228 230 233 232 233 242 242 232 225 218 215 217 222 226 232 238 242 245 249 249 245 240 242 250 252 249 253 256 252 253 266 277 283 293 302 311 315 309 311 320 310 309 324 327 320 321 321 320 329 338 342 346 349 349 352
187 190 192 191 192 194 192 188 193 201 202 199 197 197 197 195 196 198 197 194 197 200 202 205 208 211 216 222 226 227 229 234 234 231 238 249 244 236 226 216 216 225 230 235 242 247 250 251 251 251 246 244 248 256 256 250 250 254 251 248 256 267 278 292 301 307 313 314 322 324 315 311 321 326 325 326 326 326 328 332 338 343 347 349 349
Height
840 842 843 844 846 846 847 848 849 851 852 853 855 856 857 858 859 859 860 861 862 863 864 865 866 867 867 868 869 869 870 871 871 872 873 873 873 873 873 873 874 874 874 874 874 874 873 873 873 874 874 874 873 873 872 872 872 871 870 870 868 868 868 867 866 865 864 864 863 862 861 860 859 858 857 856 855 853 852 851 849 848 846 844 843
840 841 843 844 845 846 847 848 849 850 851 853 854 855 856 857 858 859 860 860 861 862 864 865 866 867 867 868 869 870 870 871 872 872 873 873 873 874 874 874 874 874 874 874 875 874 874 874 874 875 875 875 874 874 873 873 872 871 871 870 869 868 868 867 866 865 864 864 863 862 861 860 859 858 857 856 855 853 852 851 849 848 846 844 843
840 841 842 844 845 846 846 847 848 849 851 852 853 855 855 856 857 858 859 860 861 862 864 865 866 867 867 868 869 870 870 871 872 872 873 873 874 874 874 874 875 875 875 875 875 875 875 875 875 876 876 875 875 874 874 873 872 872 871 870 869 868 868 867 867 866 865 864 863 863 862 861 860 859 857 856 855 853 852 851 849 848 846 845 843
840 841 842 844 845 845 846 847 848 849 850 852 853 854 855 856 857 858 858 859 861 862 864 865 865 867 867 868 869 870 871 871 872 872 873 873 874 875 875 875 875 875 875 875 876 876 876 876 876 876 876 876 875 875 874 874 873 872 871 870 869 868 868 868 867 866 865 864 864 863 862 861 860 859 857 856 855 853 852 851 849 848 846 844 843
839 840 841 843 844 845 846 846 847 848 850 851 852 853 854 856 856 857 858 859 861 862 863 864 865 866 867 868 869 870 871 872 872 872 873 873 874 874 875 876 876 875 875 875 876 876 876 877 877 877 877 876 876 876 875 874 873 872 871 870 869 869 868 868 867 866 865 864 864 863 862 861 860 859 858 856 855 853 852 851 849 848 846 844 842
838 839 841 842 844 844 845 846 846 847 849 850 851 852 854 855 856 857 858 859 861 862 862 864 865 866 867 868 870 870 871 872 872 872 873 873 874 874 875 876 876 876 876 876 876 876 876 877 877 877 877 877 876 876 875 874 873 872 871 870 870 869 869 868 867 866 865 864 863 863 862 861 860 859 857 856 854 853 852 850 849 847 845 843 842
837 838 840 841 843 843 844 845 845 846 848 849 850 851 853 854 855 856 857 858 860 861 862 863 865 866 867 868 870 871 871 872 872 873 873 873 874 874 875 875 875 876 876 876 876 876 876 877 877 877 877 877 876 876 875 874 874 872 872 871 870 870 869 868 867 866 865 864 863 862 862 861 860 858 857 856 854 852 851 850 848 846 845 843 841
836 837 839 840 842 842 843 844 844 845 846 848 849 850 852 853 854 855 856 858 860 861 862 863 864 866 867 869 870 871 871 872 872 873 873 874 874 874 875 875 875 876 876 876 877 876 877 877 877 877 877 877 876 876 875 875 874 873 872 871 871 870 869 868 867 866 865 864 863 862 862 861 860 858 857 855 853 852 850 849 847 845 844 842 840
835 836 838 839 840 841 842 843 843 844 845 847 848 849 851 852 853 855 855 857 858 859 861 863 864 866 868 869 870 871 872 872 873 873 873 874 874 875 875 875 875 875 876 876 877 877 877 877 877 877 877 876 876 875 875 875 874 873 872 872 871 870 869 868 867 866 865 864 863 862 861 860 860 859 857 856 854 852 850 848 846 845 843 841 840
834 835 837 838 839 840 841 842 843 843 845 846 847 849 850 851 852 854 855 856 857 858 860 862 864 866 868 869 870 871 872 872 873 873 874 874 875 875 875 876 876 876 876 876 877 877 878 877 877 877 877 876 875 875 875 874 873 873 873 872 871 870 869 868 867 866 865 864 863 862 861 860 859 858 857 856 854 852 850 848 846 844 842 840 839
832 834 836 837 838 839 840 841 842 842 844 845 846 848 849 850 851 852 854 855 856 857 859 861 863 865 867 869 870 871 872 872 873 874 874 875 875 875 876 876 876 876 876 876 876 877 877 877 878 877 877 876 875 875 874 874 873 873 873 872 871 870 869 868 867 867 865 864 863 862 861 860 859 858 857 855 853 851 849 847 845 843 841 839 838
831 833 834 835 836 838 838 840 841 841 843 844 845 846 848 849 850 851 853 854 856 857 859 860 863 866 868 869 870 871 872 872 873 873 874 875 875 875 876 876 876 876 876 876 877 877 877 877 877 877 877 876 876 875 874 873 873 873 872 871 871 870 869 868 867 866 865 864 863 862 861 860 859 858 856 855 853 851 849 847 845 842 840 839 837
830 831 833 834 835 836 837 839 839 840 842 843 844 845 847 848 849 851 852 853 855 857 858 860 862 865 868 869 870 871 871 872 873 873 874 874 875 875 876 876 876 876 876 877 877 877 877 877 877 877 877 877 876 875 874 873 873 872 872 871 870 869 868 868 867 866 865 864 863 862 861 860 859 857 856 854 852 851 849 847 845 842 840 838 836
828 830 832 833 834 835 836 837 838 839 841 842 843 844 846 847 848 850 852 853 854 856 857 859 861 863 865 868 871 871 872 872 872 873 873 874 874 875 875 876 876 876 876 877 877 877 877 877 877 877 877 877 876 875 874 874 873 872 871 870 869 868 868 867 866 865 864 863 862 861 860 859 858 857 855 854 852 850 848 847 844 842 840 838 836
827 829 830 831 832 833 834 836 837 838 840 841 842 843 845 846 847 848 850 852 854 855 856 858 859 861 864 866 868 870 871 872 872 872 873 873 874 874 875 875 875 876 876 876 877 877 877 876 876 876 876 876 876 875 874 874 873 872 871 870 869 868 867 867 866 865 864 863 862 861 860 859 858 856 855 853 851 850 848 846 844 842 840 838 836
826 827 829 830 831 832 833 835 836 837 839 840 841 843 844 845 846 847 848 851 853 855 856 856 857 859 862 864 866 868 867 867 870 871 872 873 873 873 874 874 875 875 876 876 876 876 876 876 876 876 876 875 875 875 874 874 873 872 870 869 868 867 866 866 865 864 863 862 862 861 860 858 857 856 854 853 851 849 848 846 844 842 840 837 835
825 826 827 828 830 831 832 833 835 836 837 840 842 843 844 844 845 846 847 848 851 853 855 856 856 857 858 861 864 864 862 864 867 869 871 872 872 873 873 873 874 874 875 875 875 876 875 875 875 875 875 875 874 874 874 873 872 872 870 868 867 866 865 864 863 863 862 862 861 860 859 858 856 855 854 852 850 849 847 846 844 842 839 837 835
824 825 826 827 828 829 830 832 834 835 836 838 840 842 843 843 844 845 846 847 849 851 853 854 855 856 856 857 858 859 859 862 865 866 869 871 871 871 872 872 873 874 874 874 875 875 875 875 875 874 874 874 874 874 873 873 872 871 870 868 866 865 864 863 862 861 861 861 860 859 859 857 856 855 853 851 850 848 846 845 843 841 839 836 834
822 823 824 825 827 828 829 831 832 834 836 836 838 840 841 842 843 844 845 846 847 848 850 852 854 855 855 856 857 857 858 860 862 863 866 868 869 870 871 871 872 873 873 873 874 874 874 874 874 874 873 873 873 873 873 872 871 870 869 868 866 865 863 862 861 860 860 859 859 858 858 857 855 854 852 851 849 847 845 844 842 840 838 835 833
820 822 823 824 825 826 828 829 831 832 834 835 837 838 840 841 842 843 843 844 845 846 848 849 851 852 854 855 856 857 857 858 859 860 861 863 866 868 869 870 871 871 871 872 873 873 873 873 873 873 872 872 872 872 872 872 871 870 868 867 866 864 863 862 860 859 859 858 858 858 857 856 855 853 852 850 848 846 844 843 841 839 837 834 832
819 820 822 823 824 825 826 827 829 830 832 834 835 837 838 839 840 841 842 843 844 845 846 847 849 850 852 854 855 856 857 857 858 859 859 859 861 864 866 868 869 870 870 870 871 871 872 872 872 872 872 872 872 872 871 871 870 869 868 866 865 864 862 861 860 859 858 858 857 857 856 855 854 852 851 849 847 845 844 842 841 838 836 833 831
817 819 820 822 823 824 825 825 827 828 830 832 833 835 837 838 839 840 841 842 843 844 845 846 847 848 850 852 853 854 855 856 857 858 859 859 859 860 862 864 866 867 868 869 870 870 870 870 871 871 871 871 871 871 871 870 869 868 867 866 865 863 862 861 860 859 858 857 857 856 856 854 853 851 850 848 846 845 843 841 840 837 835 833 830
815 817 818 820 821 822 823 824 826 827 828 829 831 833 835 836 837 838 839 840 841 842 843 845 846 847 848 851 852 852 853 853 855 856 857 858 858 858 859 861 863 865 866 867 868 869 869 870 870 870 870 870 870 870 870 869 868 867 866 865 864 862 861 860 859 858 857 857 856 855 855 853 852 850 849 847 845 844 842 840 839 836 834 832 829
813 815 816 818 819 820 821 823 824 826 827 828 830 832 834 835 836 837 838 840 840 841 842 843 845 845 846 848 850 850 851 852 853 854 855 856 856 856 857 860 861 863 865 866 868 868 868 869 869 869 869 869 869 869 869 868 867 866 865 864 863 861 860 859 858 858 857 856 855 854 853 852 851 849 848 846 844 843 841 840 838 836 833 831 829
810 812 814 816 817 818 819 821 823 824 825 826 830 832 833 834 835 836 838 839 839 840 841 842 843 844 845 846 848 849 850 850 851 853 854 855 855 855 857 859 860 861 864 865 866 867 868 868 868 868 869 869 869 868 868 867 866 865 864 863 861 860 859 858 857 857 856 855 854 853 852 851 850 848 847 845 844 842 840 839 837 835 833 830 828
807 810 812 814 816 816 818 820 822 823 823 825 829 831 831 832 834 835 836 837 838 839 840 841 842 843 844 845 846 847 848 849 850 851 852 853 854 854 856 858 860 861 862 864 865 865 866 867 867 868 868 868 868 867 867 866 865 864 863 862 860 859 858 857 857 856 855 855 854 853 851 850 849 847 846 844 843 841 839 838 836 834 832 829 827
805 808 810 812 814 815 817 819 821 822 822 825 828 828 829 831 832 833 835 836 837 838 839 839 840 841 842 843 844 846 846 847 848 849 851 852 852 853 854 856 858 860 861 862 863 863 864 865 866 867 867 866 866 866 866 865 864 862 862 861 860 859 857 857 856 856 855 854 853 852 851 849 848 846 845 843 842 840 838 837 835 833 831 829 826
803 806 809 810 812 814 816 818 820 821 822 824 826 827 828 829 830 831 833 834 835 836 837 838 839 839 841 842 843 844 845 846 847 848 849 850 851 851 852 853 854 857 859 860 861 862 863 864 865 865 866 865 865 865 864 864 863 861 861 860 859 858 857 856 855 855 854 853 852 851 850 848 847 845 844 843 841 839 838 836 834 832 830 828 825
802 804 807 808 810 812 815 817 818 820 822 823 825 826 826 827 828 830 831 832 833 834 836 837 837 838 839 840 842 842 843 844 845 846 847 848 849 849 850 851 851 852 855 857 857 859 861 862 863 864 864 864 864 864 864 863 862 861 860 859 858 857 856 855 855 854 853 852 851 850 849 847 846 844 843 842 840 838 837 835 833 831 829 827 824
800 802 805 807 809 811 813 815 817 818 820 822 824 825 825 826 828 829 830 831 832 833 834 835 836 837 838 839 840 841 842 843 844 844 845 846 847 848 849 849 850 850 850 852 854 856 859 860 862 862 863 863 863 863 863 863 862 861 860 859 858 857 855 854 854 853 852 851 850 849 848 847 845 844 842 840 839 837 836 834 832 830 828 826 823
798 801 803 805 807 809 811 813 815 817 818 820 822 823 824 825 826 828 829 830 831 832 833 834 835 836 837 838 839 839 840 842 843 843 844 845 846 846 847 848 848 849 850 850 851 854 857 859 860 861 862 862 863 863 863 862 860 859 859 858 857 855 854 853 853 852 852 851 849 848 847 846 844 843 841 839 838 836 835 833 831 829 827 824 821
796 798 801 803 805 807 809 811 813 815 817 818 820 822 823 824 825 826 827 828 830 830 831 832 834 835 836 837 838 838 840 841 842 842 843 844 844 845 846 846 847 848 850 851 851 853 856 858 859 860 861 861 862 862 862 860 859 858 857 856 855 854 853 852 852 851 850 850 848 847 846 845 843 842 840 838 837 835 834 832 830 828 826 823 820
793 796 798 801 803 805 807 809 811 813 815 816 818 820 821 822 823 825 826 827 828 829 830 831 833 834 835 836 837 837 839 840 841 841 842 843 843 844 845 846 847 848 850 851 851 853 856 857 858 859 859 860 860 860 859 858 857 856 855 854 853 852 851 850 851 850 850 849 847 846 845 844 842 840 839 837 836 834 833 831 829 827 824 822 819
791 794 796 799 801 803 805 808 809 811 813 814 816 818 820 821 822 823 824 825 827 828 829 830 832 833 834 835 836 837 838 839 840 841 842 842 843 844 845 845 847 847 849 850 850 852 854 856 857 858 858 858 858 857 857 856 855 854 854 853 852 851 850 849 850 850 849 848 846 845 844 842 841 839 837 836 834 833 832 830 828 826 823 821 818
789 792 794 797 799 801 804 806 807 809 811 812 814 816 818 819 820 821 823 824 825 826 828 829 830 832 833 834 835 836 837 838 839 840 841 842 843 844 844 845 846 846 847 848 849 850 852 853 855 855 856 856 856 856 856 856 855 853 853 853 852 851 849 848 849 849 848 847 845 844 843 841 840 838 836 835 833 832 831 829 827 824 822 819 816
787 790 792 795 797 800 802 804 805 807 809 810 813 815 816 818 819 820 822 823 824 826 827 828 829 831 832 833 834 835 836 838 839 840 841 842 843 844 844 845 845 845 846 847 848 849 850 852 853 854 854 855 856 856 856 856 855 853 853 853 852 851 849 848 848 848 848 846 844 843 842 840 838 837 835 834 832 831 830 828 826 823 821 818 815
786 788 790 793 796 798 800 802 804 805 807 809 811 813 815 816 818 819 821 822 824 825 826 827 829 830 832 833 833 834 836 837 838 839 840 841 842 843 844 844 844 845 845 846 847 847 849 850 852 853 854 855 855 856 856 856 855 854 853 853 852 850 849 848 848 848 847 845 843 842 840 839 837 836 834 833 832 830 829 827 824 822 819 817 814
783 786 788 790 793 796 798 800 802 804 805 807 809 811 813 815 817 819 820 822 823 824 825 827 829 830 831 832 833 834 835 837 838 839 840 841 842 842 843 843 844 844 845 846 846 846 848 849 850 852 853 854 855 855 855 855 854 854 853 852 851 850 849 848 848 847 846 845 842 841 839 838 836 835 833 832 831 829 827 825 823 821 818 815 812
781 783 786 788 791 793 796 798 800 802 803 805 808 810 812 813 816 818 819 821 822 823 825 826 828 829 830 831 832 833 835 836 837 838 839 840 841 841 842 843 843 843 844 846 846 846 848 849 850 852 853 853 854 854 854 854 854 853 853 852 850 849 848 848 847 847 846 844 841 840 839 837 836 834 833 831 830 828 826 824 822 819 817 814 811
778 780 783 786 788 791 794 796 798 800 802 804 806 808 810 812 814 816 818 819 821 822 823 825 827 828 830 830 832 833 834 836 837 837 838 839 840 841 842 842 843 843 844 845 846 846 848 849 850 851 852 853 853 853 853 853 853 852 852 851 850 848 848 847 847 846 845 843 841 840 839 837 835 834 832 830 829 827 825 823 821 818 815 812 809
776 778 781 783 786 788 791 794 796 798 799 801 804 806 808 810 812 814 816 818 819 821 822 824 826 827 829 830 831 832 834 835 836 837 838 839 840 841 841 842 843 844 844 845 845 846 847 848 850 850 851 852 852 852 852 852 851 851 850 850 849 848 847 846 846 845 844 843 841 840 838 837 835 833 831 829 828 825 823 822 819 817 814 811 808
773 776 778 781 783 786 789 791 793 795 797 799 802 804 806 808 810 812 814 816 818 819 821 823 825 826 828 829 830 832 833 834 835 836 837 838 839 840 841 842 843 844 844 845 845 846 847 848 849 849 850 851 851 851 851 850 850 850 849 849 848 847 846 845 845 844 843 842 840 838 837 836 833 832 830 828 826 824 823 821 819 816 813 810 807
770 773 776 778 781 784 786 788 791 792 795 797 800 802 804 806 808 810 812 814 816 817 819 821 823 825 827 828 829 831 832 833 834 836 837 838 839 840 840 841 842 842 843 844 844 845 846 847 847 848 849 849 849 849 850 850 849 849 849 848 847 846 845 844 844 843 842 840 839 838 836 835 833 831 829 828 826 824 822 820 818 815 812 809 806
767 771 773 775 778 781 784 786 788 790 792 795 798 800 802 804 806 808 810 811 813 815 817 819 822 824 825 827 828 829 830 832 833 834 836 837 838 839 839 840 840 841 842 843 843 844 845 845 846 847 847 847 848 848 849 849 849 848 848 847 846 846 845 844 843 842 841 839 838 837 835 834 833 831 829 827 825 824 821 819 816 814 811 808 805
765 768 770 773 776 779 781 783 786 788 790 793 796 798 800 802 804 806 808 809 811 813 815 817 820 822 823 825 826 827 829 831 832 833 834 836 837 838 838 839 839 839 840 841 842 843 844 844 845 846 846 846 847 847 848 848 848 848 847 846 846 845 844 843 843 842 841 839 838 837 835 833 832 830 828 827 825 823 821 818 816 813 810 808 804
762 765 767 770 773 776 778 781 783 785 788 790 793 795 798 800 802 804 806 808 809 811 813 815 818 820 822 823 825 826 828 830 831 832 833 835 836 837 838 838 838 839 839 840 841 842 843 844 844 845 845 845 846 846 846 846 847 846 846 846 845 844 844 843 842 841 840 838 837 836 834 832 831 830 828 826 824 822 820 818 815 813 810 807 804
759 761 764 766 769 772 775 777 780 783 785 788 790 793 795 798 800 802 804 806 808 810 812 814 816 818 820 822 823 825 826 828 830 831 832 834 835 836 837 838 838 839 839 840 841 842 842 843 843 844 844 845 845 845 845 845 845 845 845 845 844 843 843 842 841 840 839 838 837 836 834 831 830 829 827 826 824 821 819 817 814 812 809 806 803
756 758 761 763 766 769 772 775 778 780 783 785 788 791 793 796 798 801 803 805 807 808 810 812 814 816 818 820 822 824 826 827 829 830 832 833 835 836 837 837 838 839 839 840 841 841 842 842 843 843 844 844 844 844 844 844 844 844 843 843 843 842 842 841 839 838 838 837 836 836 834 831 830 828 826 825 823 820 818 816 814 811 808 804 801
753 755 758 761 764 767 769 772 775 778 780 783 786 788 791 794 796 799 801 803 805 807 808 811 813 815 817 819 821 823 825 826 828 829 831 833 834 835 836 836 837 838 839 840 841 841 842 842 842 842 843 843 843 843 843 843 843 843 842 842 842 841 840 839 837 837 837 836 835 835 834 831 829 827 825 823 821 819 817 815 812 809 806 803 800
750 753 755 758 761 764 766 769 772 775 777 780 783 786 788 791 794 796 799 801 803 805 807 809 811 813 815 817 820 822 823 825 826 828 830 832 833 834 835 836 837 837 838 840 840 841 841 841 841 841 841 842 842 842 841 841 841 841 841 841 841 840 839 838 837 836 835 835 834 834 833 830 828 827 824 821 819 817 816 813 811 808 805 802 799
747 750 753 755 758 761 764 766 769 772 774 777 780 783 786 789 791 794 796 799 801 803 805 807 809 811 813 815 817 819 821 823 825 827 828 830 831 832 833 835 836 836 837 838 839 840 840 840 840 840 840 840 840 840 839 839 839 839 839 839 840 839 839 837 836 835 834 833 833 833 832 830 828 826 824 821 817 815 814 812 809 807 804 801 798